Location: El Centro
(32.7920°N, 115.5620°W)
Time: 10:21:49
(UTC-08:00)

Amateur Radio Satellites - All Passes

Search period start: 04 December 2016 09:51
Search period end: 05 December 2016 09:51
Location: El Centro, 32.7920°N, 115.5620°W

Satellite Date Start Highest point End Downlink Frequencies (MHz)
Time Altitude Azimuth
TIGRISAT 04 Dec 10:00:09 10:04:13 29° 263° (W) 10:08:19 435.000
ANTELSAT 04 Dec 10:01:13 10:05:11 27° 263° (W) 10:09:09 437.575/2403.000
HUMSAT D 04 Dec 10:19:43 10:23:30 38° 286° (WNW) 10:27:16 437.325/437.525
JAS-2 04 Dec 10:22:16 10:29:08 82° 75° (ENE) 10:35:11 435.910
BUGSAT 1 04 Dec 10:26:38 10:29:19 17° 69° (ENE) 10:32:01 437.445
Cosmos 2499 04 Dec 10:27:50 10:34:24 24° 71° (ENE) 10:40:36 435.465 / 435.565
NANOSAT C BR1 04 Dec 10:32:09 10:36:21 62° 76° (ENE) 10:40:34 145.865
QB50P2 04 Dec 10:35:59 10:40:15 83° 79° (E) 10:44:33 145.880/145.840
POLYITAN 1 04 Dec 10:36:34 10:40:51 78° 75° (ENE) 10:45:09 437.675
RS-15 04 Dec 10:36:43 10:43:41 16° 334° (NNW) 10:50:47 29.354- 29.394
DELFI C3 04 Dec 10:40:29 10:41:26 11° 292° (WNW) 10:42:24 145.870
QB50P1 04 Dec 10:50:18 10:54:33 71° 258° (WSW) 10:58:50 145.935-145.965
AO-85 04 Dec 10:50:42 10:54:16 32° 57° (ENE) 10:57:46 145.980
DUCHIFAT 1 04 Dec 10:55:20 10:59:35 73° 258° (WSW) 11:03:51 145.980
ESTCUBE 1 04 Dec 11:01:06 11:05:36 68° 101° (ESE) 11:10:05 437.505/2401.250
50 SAT 04 Dec 11:01:19 11:03:42 17° 96° (E) 11:06:05 437.505
SPROUT 04 Dec 11:05:38 11:08:26 17° 94° (E) 11:11:14 437.525
POPSAT HIP 1 04 Dec 11:11:56 11:15:56 38° 261° (W) 11:19:57 437.405
AISAT 04 Dec 11:16:05 11:20:17 39° 99° (E) 11:24:27 437.250
DANDE 04 Dec 11:17:08 11:19:34 13° 280° (W) 11:21:45 436.750
PCSat 04 Dec 11:21:19 11:26:43 79° 295° (WNW) 11:32:09 145.827
Oscar 19 04 Dec 11:25:35 11:29:14 20° 67° (ENE) 11:32:52 437.125/150
GONETS M04 04 Dec 11:25:39 11:34:11 56° 80° (E) 11:42:43
JUGNU 04 Dec 11:29:42 11:33:46 19° 170° (S) 11:37:50 437.505
CUBEBUG 1 04 Dec 11:47:10 11:51:32 57° 285° (WNW) 11:55:52 437.445
VELOX 1 04 Dec 11:52:55 11:57:23 78° 284° (WNW) 12:01:51 145.980
BUGSAT 1 04 Dec 12:00:37 12:04:23 32° 262° (W) 12:08:11 437.445
JAS-2 04 Dec 12:12:03 12:14:25 12° 266° (W) 12:16:42 435.910
DX 1 04 Dec 12:12:34 12:16:58 90° 286° (WNW) 12:21:21 434.975-435.025
Cosmos 2499 04 Dec 12:19:42 12:28:02 60° 269° (W) 12:35:46 435.465 / 435.565
UKube-1 04 Dec 12:23:27 12:27:49 88° 115° (ESE) 12:32:07 .
AO-85 04 Dec 12:32:19 12:34:17 14° 251° (WSW) 12:36:16 145.980
TISAT 1 04 Dec 12:33:34 12:37:08 26° 97° (E) 12:40:41 437.305
50 SAT 04 Dec 12:34:13 12:36:53 20° 288° (WNW) 12:39:34 437.505
SPROUT 04 Dec 12:40:35 12:44:21 31° 288° (WNW) 12:48:07 437.525
Gurwin Techsat 1B 04 Dec 12:44:13 12:49:27 62° 74° (ENE) 12:54:42 435.225
AISAT 04 Dec 12:53:45 12:56:21 15° 293° (WNW) 12:58:58 437.250
RS-15 04 Dec 13:00:02 13:04:17 12° 13° (NNE) 13:08:31 29.354- 29.394
Oscar 19 04 Dec 13:03:28 13:08:12 39° 261° (W) 13:13:00 437.125/150
SRMSAT 04 Dec 13:05:51 13:08:58 15° 166° (SSE) 13:12:05 437.500
BEESAT 3 04 Dec 13:07:30 13:09:05 12° 50° (NE) 13:10:39 437.485
SWISSCUBE 04 Dec 13:11:03 13:13:37 14° 94° (E) 13:16:10 437.505
BEESAT 04 Dec 13:15:21 13:17:52 14° 94° (E) 13:20:22 436.000
JUGNU 04 Dec 13:17:35 13:22:11 23° 180° (S) 13:26:45 437.505
GONETS M04 04 Dec 13:23:39 13:30:21 26° 276° (W) 13:37:05
ITAMSAT 1 04 Dec 13:27:51 13:32:32 35° 71° (ENE) 13:37:15 435.822/435.867
BEESAT 2 04 Dec 13:33:28 13:34:11 10° 49° (NE) 13:34:54 435.950
ITUPSAT 1 04 Dec 13:40:27 13:44:29 27° 97° (E) 13:48:30 437.325
AO-7 04 Dec 13:45:00 13:52:42 45° 66° (ENE) 14:00:26 29.400- 29.500
AUBIESAT-1 04 Dec 13:56:42 14:00:58 39° 102° (ESE) 14:05:03 437.475
M-CUBED/EXP-1 PRIME 04 Dec 14:07:07 14:11:46 67° 105° (ESE) 14:16:12 437.505
TISAT 1 04 Dec 14:09:31 14:12:33 19° 291° (WNW) 14:15:34 437.305
Gurwin Techsat 1B 04 Dec 14:27:32 14:29:43 12° 268° (W) 14:31:55 435.225
MOZHAYETS 4 04 Dec 14:36:01 14:39:46 25° 96° (E) 14:43:29
BEESAT 3 04 Dec 14:43:06 14:46:59 50° 245° (WSW) 14:50:48 437.485
SWISSCUBE 04 Dec 14:47:03 14:51:33 45° 287° (WNW) 14:56:03 437.505
BEESAT 04 Dec 14:51:16 14:55:49 45° 287° (WNW) 15:00:19 436.000
SRMSAT 04 Dec 14:53:03 14:57:29 22° 175° (S) 15:01:54 437.500
JUGNU 04 Dec 15:06:36 15:10:34 18° 190° (S) 15:14:31 437.505
ITAMSAT 1 04 Dec 15:07:58 15:12:00 22° 264° (W) 15:16:02 435.822/435.867
BEESAT 2 04 Dec 15:08:22 15:12:21 62° 244° (WSW) 15:16:17 435.950
RS-15 04 Dec 15:11:34 15:22:29 34° 46° (NE) 15:33:03 29.354- 29.394
ITUPSAT 1 04 Dec 15:18:21 15:22:09 24° 291° (WNW) 15:25:57 437.325
KKS-1 04 Dec 15:18:45 15:22:41 29° 98° (E) 15:26:35 437.445
ISS 04 Dec 15:20:51 15:23:54 37° 132° (SE) 15:26:59 145.825
HORYU 2 04 Dec 15:27:39 15:30:50 20° 69° (ENE) 15:34:03 437.375
STARS 04 Dec 15:30:23 15:33:18 17° 95° (E) 15:36:11 437.465
AUBIESAT-1 04 Dec 15:31:58 15:34:58 18° 297° (WNW) 15:37:54 437.475
AO-7 04 Dec 15:38:07 15:45:27 35° 261° (W) 15:52:52 29.400- 29.500
GOMX 1 04 Dec 15:38:57 15:40:29 12° 64° (ENE) 15:42:02 467.674
M-CUBED/EXP-1 PRIME 04 Dec 15:44:07 15:45:33 11° 300° (WNW) 15:46:59 437.505
O/OREOS (USA 219) 04 Dec 15:44:37 15:49:12 88° 283° (WNW) 15:53:47 437.305
BRITE-PL 04 Dec 15:51:41 15:55:38 41° 73° (ENE) 15:59:48 437.365/2234.400
CUBESAT XI-V 04 Dec 16:10:35 16:14:54 37° 98° (E) 16:19:14 437.345
MOZHAYETS 4 04 Dec 16:13:08 16:16:47 24° 290° (WNW) 16:20:26
NOAA 18 04 Dec 16:25:30 16:28:53 17° 64° (ENE) 16:32:17 137.9125
CUTE-I 04 Dec 16:29:09 16:33:38 28° 69° (ENE) 16:38:06 437.470
SRMSAT 04 Dec 16:41:39 16:46:02 22° 186° (S) 16:50:26 437.500
Cubesat XI-IV 04 Dec 16:53:46 16:58:54 48° 73° (ENE) 17:04:04 437.490
KKS-1 04 Dec 16:55:45 16:59:00 20° 291° (WNW) 17:02:15 437.445
NOAA 15 04 Dec 16:56:39 17:01:47 58° 74° (ENE) 17:06:55 137.62
ISS 04 Dec 16:58:11 17:00:30 18° 326° (NW) 17:02:49 145.825
HORYU 2 04 Dec 17:03:10 17:07:08 31° 262° (W) 17:11:07 437.375
STARS 04 Dec 17:05:43 17:09:40 33° 288° (WNW) 17:13:35 437.465
LilacSat-2 04 Dec 17:09:40 17:13:32 76° 76° (ENE) 17:17:22 437.200
GOMX 1 04 Dec 17:13:36 17:17:54 55° 260° (W) 17:22:34 467.674
AIST 2 04 Dec 17:20:45 17:24:59 77° 62° (ENE) 17:29:11 435.215
RS-15 04 Dec 17:23:42 17:35:53 69° 248° (WSW) 17:47:33 29.354- 29.394
Cosmos 2491 04 Dec 17:25:35 17:33:54 47° 78° (ENE) 17:42:09 435.465 / 435.565
CINEMA 3 04 Dec 17:26:27 17:29:47 19° 68° (ENE) 17:33:11 145.822/145.860
DOVE 4 04 Dec 17:31:50 17:36:28 89° 85° (E) 17:41:27 437.250
BRITE-PL 04 Dec 17:32:50 17:34:24 12° 269° (W) 17:35:59 437.365/2234.400
HO-68 04 Dec 17:46:53 17:53:01 32° 66° (ENE) 17:59:12 435.675
YUBILEINY 04 Dec 17:48:44 17:56:05 32° 85° (E) 18:03:25 435.215
CUBESAT XI-V 04 Dec 17:48:55 17:51:57 17° 292° (WNW) 17:54:59 437.345
CUTE 1.7 + AOD 2 04 Dec 18:01:36 18:04:53 22° 71° (ENE) 18:08:09 437.475
NOAA 18 04 Dec 18:03:37 18:09:01 55° 259° (WSW) 18:14:28 137.9125
Cosmos 2504 04 Dec 18:03:52 18:08:28 16° 79° (E) 18:13:12 435.465 / 435.565
CUTE-I 04 Dec 18:08:50 18:13:30 30° 263° (W) 18:18:12 437.470
CANX-2 04 Dec 18:18:27 18:22:27 42° 74° (ENE) 18:26:26 2200.000
SRMSAT 04 Dec 18:31:39 18:34:33 14° 195° (SSW) 18:37:27 437.500
AAUSAT CUBESAT 2 04 Dec 18:33:30 18:36:09 17° 70° (ENE) 18:38:48 437.432
Cubesat XI-IV 04 Dec 18:35:43 18:39:09 17° 266° (W) 18:42:36 437.490
NOAA 15 04 Dec 18:39:27 18:41:51 13° 267° (W) 18:44:14 137.62
UWE-3 04 Dec 18:41:23 18:44:29 18° 69° (ENE) 18:47:34 435.000/436.395/437.385
SEEDS 04 Dec 18:47:06 18:51:10 53° 75° (ENE) 18:55:13 437.485
COMPASS 1 04 Dec 19:00:36 19:04:35 49° 75° (ENE) 19:08:34 437.405
CINEMA 3 04 Dec 19:01:59 19:06:31 40° 262° (W) 19:11:12 145.822/145.860
AIST 1 04 Dec 19:04:07 19:08:06 39° 92° (E) 19:12:08
STRAND 1 04 Dec 19:09:12 19:14:19 85° 285° (WNW) 19:19:24 437.568
SO-50 04 Dec 19:16:33 19:21:07 45° 114° (ESE) 19:25:38 436.795
Cosmos 2491 04 Dec 19:23:02 19:30:19 31° 275° (W) 19:37:36 435.465 / 435.565
ZACube-1 04 Dec 19:24:56 19:28:59 32° 73° (ENE) 19:33:00 437.345
CUBEBUG 2 04 Dec 19:30:02 19:34:47 80° 258° (WSW) 19:39:33 437.445
FUNcube-1 04 Dec 19:33:25 19:37:35 37° 73° (ENE) 19:41:44 145.935
HO-68 04 Dec 19:33:52 19:40:29 41° 260° (W) 19:47:11 435.675
CUTE 1.7 + AOD 2 04 Dec 19:37:13 19:40:34 23° 264° (W) 19:43:55 437.475
CUSAT 1 04 Dec 19:41:58 19:45:22 29° 82° (E) 19:49:39 437.405
RS-15 04 Dec 19:43:08 19:45:58 11° 265° (W) 19:48:48 29.354- 29.394
YUBILEINY 04 Dec 19:44:14 19:52:27 46° 282° (WNW) 20:00:46 435.215
DELFI C3 04 Dec 19:46:05 19:48:09 14° 69° (ENE) 19:50:12 145.870
PRISM 04 Dec 19:46:17 19:47:42 11° 93° (E) 19:49:08 437.425
Cosmos 2504 04 Dec 19:52:25 20:00:35 82° 276° (W) 20:09:21 435.465 / 435.565
CANX-2 04 Dec 19:56:54 19:58:27 12° 267° (W) 19:59:59 2200.000
Oscar 11 04 Dec 20:05:54 20:10:13 87° 72° (ENE) 20:14:33 145.826/435.025
AAUSAT CUBESAT 2 04 Dec 20:07:47 20:11:21 29° 263° (W) 20:14:57 437.432
PCSat 04 Dec 20:13:59 20:18:50 32° 58° (ENE) 20:23:39 145.827
UWE-3 04 Dec 20:16:16 20:20:36 37° 262° (W) 20:24:54 435.000/436.395/437.385
AIST 1 04 Dec 20:43:58 20:45:51 13° 286° (WNW) 20:47:44
SO-50 04 Dec 20:58:26 21:01:45 18° 309° (NW) 21:05:03 436.795
ZACube-1 04 Dec 21:02:01 21:05:15 19° 265° (W) 21:08:28 437.345
HUMSAT D 04 Dec 21:05:40 21:09:54 76° 78° (ENE) 21:14:06 437.325/437.525
FUNcube-1 04 Dec 21:11:01 21:13:52 16° 266° (W) 21:16:42 145.935
DELFI C3 04 Dec 21:19:08 21:22:38 32° 262° (W) 21:26:10 145.870
PRISM 04 Dec 21:19:12 21:23:08 42° 286° (WNW) 21:27:04 437.425
CUSAT 1 04 Dec 21:24:42 21:27:10 16° 264° (W) 21:30:00 437.405
UNISAT 6 04 Dec 21:25:24 21:29:28 37° 98° (E) 21:33:27 437.425
Cosmos 2504 04 Dec 21:51:52 21:55:21 13° 295° (WNW) 21:58:56 435.465 / 435.565
TIGRISAT 04 Dec 21:55:37 22:00:01 84° 102° (ESE) 22:04:18 435.000
ESTCUBE 1 04 Dec 21:56:19 22:00:22 35° 72° (ENE) 22:04:26 437.505/2401.250
DANDE 04 Dec 21:56:21 21:58:37 19° 263° (W) 22:01:14 436.750
ANTELSAT 04 Dec 21:56:42 22:01:06 88° 282° (WNW) 22:05:23 437.575/2403.000
PCSat 04 Dec 21:57:32 22:02:03 27° 253° (WSW) 22:06:33 145.827
AISAT 04 Dec 22:09:40 22:12:56 21° 69° (ENE) 22:16:13 437.250
NANOSAT C BR1 04 Dec 22:22:31 22:24:43 14° 94° (E) 22:26:53 145.865
QB50P2 04 Dec 22:26:18 22:29:16 18° 95° (E) 22:32:13 145.880/145.840
POLYITAN 1 04 Dec 22:27:00 22:29:50 17° 95° (E) 22:32:39 437.675
CUBEBUG 1 04 Dec 22:38:16 22:42:32 65° 76° (ENE) 22:46:53 437.445
QB50P1 04 Dec 22:39:55 22:43:26 25° 97° (E) 22:46:55 145.935-145.965
DUCHIFAT 1 04 Dec 22:44:23 22:47:48 24° 96° (E) 22:51:11 145.980
VELOX 1 04 Dec 22:45:32 22:49:47 51° 74° (ENE) 22:54:05 145.980
PHONESAT 2.4 04 Dec 22:55:59 22:57:50 17° 144° (SE) 22:59:40 2401.200-2431.200
Cosmos 2499 04 Dec 22:58:54 23:04:52 22° 81° (E) 23:10:59 435.465 / 435.565
POPSAT HIP 1 04 Dec 23:00:51 23:04:55 45° 99° (E) 23:08:56 437.405
UNISAT 6 04 Dec 23:03:20 23:05:48 15° 292° (WNW) 23:08:15 437.425
DX 1 04 Dec 23:03:35 23:07:39 42° 73° (ENE) 23:11:47 434.975-435.025
50 SAT 04 Dec 23:04:06 23:07:35 74° 77° (ENE) 23:11:05 437.505
UKube-1 04 Dec 23:13:28 23:17:28 40° 73° (ENE) 23:21:31 .
JAS-2 04 Dec 23:21:02 23:26:13 77° 284° (WNW) 23:31:44 435.910
TISAT 1 04 Dec 23:22:39 23:24:16 12° 67° (ENE) 23:25:53 437.305
ISS 04 Dec 23:28:18 23:31:37 69° 44° (NE) 23:34:53 145.825
SPROUT 04 Dec 23:28:40 23:32:57 75° 259° (WSW) 23:37:16 437.525
ESTCUBE 1 04 Dec 23:34:27 23:37:14 16° 266° (W) 23:40:02 437.505/2401.250
AISAT 04 Dec 23:45:25 23:49:11 28° 263° (W) 23:52:59 437.250
BUGSAT 1 04 Dec 23:46:22 23:50:25 48° 100° (E) 23:54:24 437.445
NANOSAT C BR1 04 Dec 23:56:38 00:00:31 36° 287° (WNW) 00:04:22 145.865
QB50P2 05 Dec 00:01:25 00:05:02 28° 288° (WNW) 00:08:37 145.880/145.840
POLYITAN 1 05 Dec 00:01:56 00:05:36 29° 288° (WNW) 00:09:14 437.675
SWISSCUBE 05 Dec 00:15:01 00:16:09 11° 64° (ENE) 00:17:17 437.505
QB50P1 05 Dec 00:15:52 00:19:01 21° 290° (WNW) 00:22:09 145.935-145.965
BEESAT 05 Dec 00:19:21 00:20:21 11° 64° (ENE) 00:21:22 436.000
DUCHIFAT 1 05 Dec 00:20:07 00:23:19 21° 290° (WNW) 00:26:30 145.980
GONETS M04 05 Dec 00:20:36 00:29:17 75° 93° (E) 00:37:58
VELOX 1 05 Dec 00:25:31 00:26:29 11° 267° (W) 00:27:26 145.980
PHONESAT 2.4 05 Dec 00:30:18 00:32:53 48° 337° (NNW) 00:35:29 2401.200-2431.200
AUBIESAT-1 05 Dec 00:38:28 00:41:37 22° 64° (ENE) 00:44:57 437.475
POPSAT HIP 1 05 Dec 00:38:36 00:40:14 12° 293° (WNW) 00:41:51 437.405
DX 1 05 Dec 00:42:04 00:43:59 13° 266° (W) 00:45:55 434.975-435.025
ITUPSAT 1 05 Dec 00:43:25 00:46:53 20° 68° (ENE) 00:50:21 437.325
Cosmos 2499 05 Dec 00:48:43 00:57:02 67° 278° (W) 01:05:51 435.465 / 435.565
M-CUBED/EXP-1 PRIME 05 Dec 00:48:59 00:52:38 36° 68° (ENE) 00:56:34 437.505
UKube-1 05 Dec 00:51:34 00:53:38 13° 266° (W) 00:55:42 .
TISAT 1 05 Dec 00:55:23 00:59:26 46° 260° (W) 01:03:32 437.305
AO-85 05 Dec 00:59:45 01:04:26 38° 114° (ESE) 01:08:50 145.980
Gurwin Techsat 1B 05 Dec 01:05:14 01:10:05 35° 98° (E) 01:14:54 435.225
Oscar 19 05 Dec 01:18:58 01:24:10 79° 285° (WNW) 01:29:22 437.125/150
BUGSAT 1 05 Dec 01:24:11 01:25:17 11° 294° (WNW) 01:26:22 437.445
MOZHAYETS 4 05 Dec 01:34:39 01:37:16 15° 68° (ENE) 01:39:52
ITAMSAT 1 05 Dec 01:46:04 01:49:27 17° 95° (E) 01:52:48 435.822/435.867
SWISSCUBE 05 Dec 01:48:36 01:53:20 66° 258° (WSW) 01:58:05 437.505
BEESAT 05 Dec 01:52:46 01:57:30 67° 258° (WSW) 02:02:16 436.000
AO-7 05 Dec 01:53:19 01:58:26 17° 94° (E) 02:03:31 29.400- 29.500
O/OREOS (USA 219) 05 Dec 01:59:07 02:03:37 84° 73° (ENE) 02:08:04 437.305
PHONESAT 2.4 05 Dec 02:06:41 02:08:31 17° 353° (N) 02:10:21 2401.200-2431.200
AUBIESAT-1 05 Dec 02:12:37 02:15:51 24° 260° (W) 02:19:19 437.475
KKS-1 05 Dec 02:13:24 02:16:14 17° 68° (ENE) 02:19:04 437.445
ITUPSAT 1 05 Dec 02:20:07 02:24:26 34° 262° (W) 02:28:46 437.325
GONETS M04 05 Dec 02:21:06 02:26:51 19° 290° (WNW) 02:32:37
M-CUBED/EXP-1 PRIME 05 Dec 02:25:12 02:27:17 14° 263° (W) 02:29:26 437.505
AO-85 05 Dec 02:41:08 02:44:55 22° 306° (NW) 02:48:32 145.980
Gurwin Techsat 1B 05 Dec 02:45:38 02:49:46 23° 292° (WNW) 02:53:53 435.225
MOZHAYETS 4 05 Dec 03:09:41 03:14:02 42° 261° (W) 03:18:24
CUBESAT XI-V 05 Dec 03:10:06 03:13:37 22° 70° (ENE) 03:17:08 437.345
ITAMSAT 1 05 Dec 03:24:09 03:29:02 44° 288° (WNW) 03:33:54 435.822/435.867
PHONESAT 2.4 05 Dec 03:42:23 03:44:21 18° 10° (N) 03:46:19 2401.200-2431.200
AO-7 05 Dec 03:43:26 03:51:50 80° 289° (WNW) 04:00:11 29.400- 29.500
KKS-1 05 Dec 03:48:21 03:52:26 36° 261° (W) 03:56:35 437.445
SO-50 05 Dec 03:53:50 03:55:56 13° 48° (NE) 03:58:02 436.795
STARS 05 Dec 03:57:05 04:01:28 66° 259° (W) 04:05:53 437.465
BRITE-PL 05 Dec 04:00:00 04:04:29 25° 96° (E) 04:09:04 437.365/2234.400
YUBILEINY 05 Dec 04:07:55 04:09:45 11° 64° (ENE) 04:11:35 435.215
BEESAT 3 05 Dec 04:28:41 04:32:32 78° 117° (ESE) 04:36:28 437.485
CUBESAT XI-V 05 Dec 04:46:54 04:50:48 27° 263° (W) 04:54:44 437.345
LilacSat-2 05 Dec 04:49:49 04:50:46 11° 93° (E) 04:51:41 437.200
CUTE-I 05 Dec 04:51:37 04:54:38 15° 93° (E) 04:57:37 437.470
BEESAT 2 05 Dec 04:55:27 04:59:20 66° 116° (ESE) 05:03:16 435.950
HORYU 2 05 Dec 04:57:48 05:02:14 69° 102° (ESE) 05:06:37 437.375
Cubesat XI-IV 05 Dec 05:15:58 05:20:28 27° 97° (E) 05:24:56 437.490
NOAA 15 05 Dec 05:16:34 05:21:14 31° 98° (E) 05:25:54 137.62
PHONESAT 2.4 05 Dec 05:17:15 05:19:53 71° 24° (NNE) 05:22:31 2401.200-2431.200
GOMX 1 05 Dec 05:18:58 05:24:27 65° 100° (E) 05:29:51 467.674
RS-15 05 Dec 05:30:35 05:39:49 29° 102° (ESE) 05:49:21 29.354- 29.394
SO-50 05 Dec 05:32:21 05:36:46 60° 245° (WSW) 05:41:08 436.795
DOVE 4 05 Dec 05:35:19 05:40:13 37° 97° (E) 05:44:56 437.250
BRITE-PL 05 Dec 05:37:56 05:42:53 36° 288° (WNW) 05:48:01 437.365/2234.400
AO-7 05 Dec 05:39:08 05:43:16 15° 306° (NW) 05:47:25 29.400- 29.500
Cosmos 2504 05 Dec 05:51:33 05:59:02 31° 73° (ENE) 06:06:06 435.465 / 435.565
YUBILEINY 05 Dec 05:59:12 06:08:02 73° 83° (E) 06:16:51 435.215
CANX-2 05 Dec 06:10:55 06:11:16 10° 92° (E) 06:11:39 2200.000
STRAND 1 05 Dec 06:20:25 06:25:34 86° 77° (ENE) 06:30:43 437.568
Cosmos 2491 05 Dec 06:20:36 06:29:13 63° 92° (E) 06:37:49 435.465 / 435.565
LilacSat-2 05 Dec 06:21:41 06:25:08 35° 286° (WNW) 06:28:34 437.200
CUTE-I 05 Dec 06:29:45 06:34:54 52° 287° (WNW) 06:40:02 437.470
NOAA 18 05 Dec 06:30:06 06:35:40 88° 288° (WNW) 06:41:10 137.9125
SEEDS 05 Dec 06:37:09 06:38:54 12° 93° (E) 06:40:38 437.485
COMPASS 1 05 Dec 06:50:02 06:51:12 11° 93° (E) 06:52:23 437.405
AIST 1 05 Dec 06:52:35 06:57:00 80° 265° (W) 07:01:23
PHONESAT 2.4 05 Dec 06:53:54 06:54:51 11° 218° (SW) 06:55:48 2401.200-2431.200
Cubesat XI-IV 05 Dec 06:55:51 07:00:26 30° 291° (WNW) 07:04:59 437.490
NOAA 15 05 Dec 06:56:31 07:00:49 26° 291° (WNW) 07:05:07 137.62
GOMX 1 05 Dec 06:59:01 07:01:53 15° 294° (WNW) 07:04:44 467.674
CINEMA 3 05 Dec 07:01:08 07:05:56 73° 102° (ESE) 07:10:28 145.822/145.860
HO-68 05 Dec 07:05:50 07:12:49 51° 101° (E) 07:19:45 435.675
DOVE 4 05 Dec 07:13:35 07:17:33 22° 292° (WNW) 07:21:26 437.250
AIST 2 05 Dec 07:13:54 07:17:47 45° 114° (ESE) 07:21:46 435.215
CUTE 1.7 + AOD 2 05 Dec 07:25:19 07:29:32 82° 99° (E) 07:33:46 437.475
CUBEBUG 2 05 Dec 07:26:09 07:29:57 28° 97° (E) 07:33:37 437.445
RS-15 05 Dec 07:39:34 07:51:09 69° 301° (WNW) 08:03:24 29.354- 29.394
CANX-2 05 Dec 07:43:16 07:47:20 48° 285° (WNW) 07:51:24 2200.000
Cosmos 2504 05 Dec 07:44:20 07:52:36 49° 271° (W) 08:00:22 435.465 / 435.565
AAUSAT CUBESAT 2 05 Dec 07:53:34 07:57:39 56° 100° (E) 08:01:43 437.432
Oscar 11 05 Dec 07:58:12 08:01:31 22° 96° (E) 08:04:50 145.826/435.025
YUBILEINY 05 Dec 07:58:12 08:03:50 19° 279° (W) 08:09:28 435.215
PRISM 05 Dec 08:03:39 08:07:40 70° 75° (ENE) 08:11:43 437.425
UWE-3 05 Dec 08:10:15 08:14:30 62° 100° (E) 08:18:37 435.000/436.395/437.385
SEEDS 05 Dec 08:10:48 08:14:42 40° 286° (WNW) 08:18:38 437.485
Cosmos 2491 05 Dec 08:19:55 08:26:32 23° 288° (WNW) 08:33:11 435.465 / 435.565
UNISAT 6 05 Dec 08:20:01 08:23:34 22° 70° (ENE) 08:27:06 437.425
COMPASS 1 05 Dec 08:22:58 08:26:55 44° 285° (WNW) 08:30:52 437.405
CUSAT 1 05 Dec 08:41:19 08:44:43 38° 97° (E) 08:47:31 437.405
TIGRISAT 05 Dec 08:49:17 08:53:43 42° 74° (ENE) 08:58:08 435.000
ANTELSAT 05 Dec 08:50:26 08:54:56 47° 74° (ENE) 08:59:24 437.575/2403.000
ZACube-1 05 Dec 08:53:28 08:57:39 65° 284° (WNW) 09:01:44 437.345
AIST 2 05 Dec 08:54:21 08:56:30 14° 310° (NW) 08:58:40 435.215
HO-68 05 Dec 08:54:22 09:00:05 26° 296° (WNW) 09:05:48 435.675
HUMSAT D 05 Dec 08:54:39 08:57:10 16° 94° (E) 08:59:40 437.325/437.525
DELFI C3 05 Dec 09:00:16 09:04:02 40° 99° (E) 09:07:47 145.870
FUNcube-1 05 Dec 09:01:45 09:05:52 55° 284° (WNW) 09:09:53 145.935
CUBEBUG 2 05 Dec 09:03:16 09:06:19 19° 291° (WNW) 09:09:17 437.445
DANDE 05 Dec 09:17:03 09:21:43 32° 97° (E) 09:25:22 436.750
JUGNU 05 Dec 09:28:46 09:30:17 11° 162° (SSE) 09:31:49 437.505
JAS-2 05 Dec 09:28:47 09:34:17 29° 70° (ENE) 09:39:18 435.910
QB50P1 05 Dec 09:30:01 09:31:25 11° 67° (ENE) 09:32:50 145.935-145.965
Oscar 11 05 Dec 09:34:03 09:37:33 24° 289° (WNW) 09:41:02 145.826/435.025
DUCHIFAT 1 05 Dec 09:34:18 09:35:13 11° 66° (ENE) 09:36:09 145.980
